TimeAST,TemperatureF,Dew PointF,Humidity,Sea Level PressureIn,VisibilityMPH,Wind Direction,Wind SpeedMPH,Gust SpeedMPH,PrecipitationIn,Events,Conditions,WindDirDegrees,DateUTC
12:00 AM,78.8,77.0,94,29.92,6.2,ESE,11.5,-,N/A,Rain-Thunderstorm,Light Thunderstorms and Rain,120,2013-09-16 04:00:00
1:00 AM,80.6,77.0,89,29.92,6.2,ESE,17.3,-,N/A,Rain-Thunderstorm,Light Thunderstorms and Rain,110,2013-09-16 05:00:00
2:00 AM,80,77,89,29.89,6,ESE,5.8,,,Rain,Light Rain Showers,120,2013-09-16 06:00:00
2:00 AM,80.6,77.0,89,29.89,6.2,ESE,5.8,-,N/A,Thunderstorm,Mostly Cloudy,120,2013-09-16 06:00:00
3:00 AM,82.4,75.2,79,29.86,6.2,East,17.3,-,N/A,Thunderstorm,Mostly Cloudy,100,2013-09-16 07:00:00
4:00 AM,82.4,75.2,79,29.89,6.2,East,16.1,-,N/A,Thunderstorm,Mostly Cloudy,100,2013-09-16 08:00:00
5:00 AM,82,76,78,29.91,7,East,9.2,,,,Partly Cloudy,90,2013-09-16 09:00:00
5:00 AM,82.4,77.0,84,29.89,6.2,East,9.2,-,N/A,Thunderstorm,Mostly Cloudy,90,2013-09-16 09:00:00
6:00 AM,78.8,77.0,94,29.89,-9999.0,ESE,6.9,-,N/A,,Mostly Cloudy,120,2013-09-16 10:00:00
7:00 AM,82.4,77.0,84,29.92,6.2,NE,9.2,-,N/A,,Mostly Cloudy,50,2013-09-16 11:00:00
8:00 AM,82,78,83,29.94,9,East,11.5,,,,Widespread Dust,100,2013-09-16 12:00:00
8:00 AM,82.4,77.0,84,29.92,6.2,East,11.5,-,N/A,,Mostly Cloudy,100,2013-09-16 12:00:00
9:00 AM,86.0,77.0,74,29.92,6.2,ESE,13.8,-,N/A,,Mostly Cloudy,110,2013-09-16 13:00:00
10:00 AM,87.8,78.8,75,29.92,6.2,East,15.0,-,N/A,,Mostly Cloudy,100,2013-09-16 14:00:00
11:00 AM,88,78,67,29.92,9,East,15.0,,,,Widespread Dust,80,2013-09-16 15:00:00
11:00 AM,87.8,78.8,75,29.92,6.2,East,15.0,-,N/A,,Mostly Cloudy,80,2013-09-16 15:00:00
12:00 PM,87.8,77.0,70,29.92,6.2,East,21.9,-,N/A,,Mostly Cloudy,100,2013-09-16 16:00:00
1:00 PM,86.0,77.0,74,29.89,6.2,East,13.8,-,N/A,,Scattered Clouds,100,2013-09-16 17:00:00
2:00 PM,89,79,66,29.87,14,ESE,23.0,,,,Widespread Dust,120,2013-09-16 18:00:00
2:00 PM,87.8,78.8,75,29.86,6.2,ESE,23.0,-,N/A,,Scattered Clouds,120,2013-09-16 18:00:00
3:00 PM,86.0,78.8,79,29.86,6.2,ESE,13.8,-,N/A,Rain,Light Rain Showers,120,2013-09-16 19:00:00
4:00 PM,82.4,78.8,89,29.83,6.2,ESE,17.3,-,N/A,Rain,Light Rain Showers,110,2013-09-16 20:00:00
5:00 PM,85,78,74,29.85,9,East,16.1,,,,Partly Cloudy,100,2013-09-16 21:00:00
5:00 PM,86.0,78.8,79,29.83,6.2,East,16.1,-,N/A,,Mostly Cloudy,100,2013-09-16 21:00:00
6:00 PM,84.2,77.0,79,29.86,6.2,East,11.5,-,N/A,,Mostly Cloudy,90,2013-09-16 22:00:00
7:00 PM,80.6,78.8,94,29.83,6.2,East,9.2,-,N/A,,Mostly Cloudy,90,2013-09-16 23:00:00
8:00 PM,82,79,87,29.87,9,East,5.8,,,,Widespread Dust,80,2013-09-17 00:00:00
8:00 PM,82.4,78.8,89,29.86,6.2,East,5.8,-,N/A,,Mostly Cloudy,80,2013-09-17 00:00:00
9:00 PM,82.4,77.0,84,29.89,6.2,East,10.4,-,N/A,,Mostly Cloudy,80,2013-09-17 01:00:00
10:00 PM,82.4,78.8,89,29.89,6.2,East,5.8,-,N/A,,Mostly Cloudy,80,2013-09-17 02:00:00
11:00 PM,80.6,77.0,89,29.86,6.2,ENE,9.2,-,N/A,Rain,Light Rain Showers,70,2013-09-17 03:00:00